Location: Unspecified
(45.3999°N, 88.1269°W)
Time: 15:32:40
(UTC-05:00)

CZ-3 Stage 3 - Visible Passes

Search period start: 25 September 2018 00:00
Search period end: 05 October 2018 00:00
Orbit: 368 x 34824 km, 30.5° (Epoch: 24 September)

Date Brightness Start Highest point End Pass type
(mag) Time Alt. Az. Time Alt. Az. Time Alt. Az.
25 Sep 7.5 15:33:55 10° SSE 22:56:54 71° S 00:44:43 10° ESE visible
26 Sep 8.4 14:13:49 10° E 19:04:29 38° E 20:52:28 10° E visible
27 Sep 8.2 00:14:56 10° W 01:01:00 11° W 02:01:37 10° WNW visible
27 Sep 6.8 18:59:53 10° SW 21:53:40 49° SW 04:10:38 10° S visible
28 Sep 7.5 15:22:56 10° SSE 22:41:02 71° S 00:34:31 10° ESE visible
29 Sep 8.4 14:00:24 10° E 18:52:49 38° E 20:41:57 10° E visible
29 Sep 8.3 23:56:28 10° W 00:50:51 12° W 02:06:47 10° WNW visible
30 Sep 6.8 18:49:08 10° SW 21:42:08 50° SW 04:00:23 10° S visible
01 Oct 7.5 15:12:00 10° SSE 22:25:16 71° S 00:24:19 10° ESE visible
02 Oct 8.4 13:47:03 10° E 18:41:09 38° E 20:31:25 10° E visible
02 Oct 8.4 23:39:36 10° W 00:40:39 12° W 02:10:18 10° WNW visible
03 Oct 6.8 18:38:25 10° SW 21:30:36 50° SW 03:50:06 10° S visible
